Regional Weather Roundup
Issued by NWS New Orleans/Baton Rouge, LA

Home | Current Version | Previous Version | Graphics & Text | Print | Product List | Glossary On
Versions: 1 2 3 4 5 6 7 8 9 10 11 12 13 14 15 16 17 18 19 20 21 22 23 24 25 26 27 28 29 30 31 32 33 34 35 36 37 38 39 40 41 42 43 44 45 46 47 48 49 50
305
ASUS44 KLIX 160201
RWRLIX
NEW ORLEANS REGIONAL WEATHER ROUNDUP
NATIONAL WEATHER SERVICE NEW ORLEANS LA
900 PM CDT TUE APR 15 2014

NOTE: "FAIR" INDICATES FEW OR NO CLOUDS BELOW 12,000 FEET WITH NO
      SIGNIFICANT WEATHER AND/OR OBSTRUCTIONS TO VISIBILITY.
      SKY/WX - SKY CONDITION AND SIGNIFICANT WEATHER.
      TMP - AIR TEMPERATURE.     DP    - DEWPOINT TEMPERATURE.
      RH  - RELATIVE HUMIDITY.   PRES  - PRESSURE.
      HI  - HEAT INDEX.          WCI   - WIND CHILL INDEX.

*  THESE STATIONS ARE NOT NWS OR FAA STATIONS AND ARE NOT UNDER
   NWS QUALITY CONTROL.

LAZ038-040-048-061>063-065>067-069-160300-
SOUTHEAST LOUISIANA

CITY           SKY/WX    TMP DP  RH WIND       PRES   REMARKS
N.O. AUDUBON   NOT AVBL
N.O. INTL ARPT PTCLDY    54  31  41 N12       30.17R
N.O. LAKEFRONT CLEAR     56  33  42 N21G28    30.17R
N.O. DOWNTOWN*   N/A     55  28  35 N8        30.17R
SLIDELL        CLEAR     51  31  46 N5        30.16R
BATON ROUGE    CLEAR     51  31  46 VRB3      30.20R
BOOTHVILLE     PTCLDY    57  35  43 N14G22    30.13R
BELLE CHASSE   MOCLDY    54  29  38 N8        30.16R
BOGALUSA*        N/A     46  36  68 N5        30.19R
GALLIANO*      NOT AVBL
NEW ROADS*     NOT AVBL
GONZALES*        N/A     51  31  46 N6        30.18R
HAMMOND*       NOT AVBL
HOUMA*         NOT AVBL
PORT FOURCHON* CLEAR     57  37  47 N14G21    30.15R

$$

MSZ070-080>082-160300-
SOUTHERN MISSISSIPPI

CITY           SKY/WX    TMP DP  RH WIND       PRES   REMARKS
MCCOMB         CLEAR     46  31  55 N6        30.20R
GULFPORT       PTCLDY    54  31  41 N7        30.15R
BILOXI         PTCLDY    53  32  45 N10       30.15R
PASCAGOULA     PTCLDY    50  37  61 N5        30.15R
STENNIS ARPT*  CLEAR     48  37  66 CALM      30.15R

$$

COASTAL OBSERVATIONS
LAKE AND NEARSHORE STATIONS

STATION/POSITION TIME  TEMP    WIND        PRES    WAVE
                       AIR SEA DIR/SP/G            HT/PER
                 (UTC) (F)     (DEG/KT/KT) (MB)    (FT/S)
PASCAGOULA       0100   54     360/  6/  9 1019.7
WAVELAND YACHT   0100   55 68  360/ 12/ 13 1019.8
GRAND ISLE       0100   58 68   20/ 16/ 22 1020.6
SOUTHWEST PASS   0100   60 58   10/ 19/ 22 1019.7
NEW CANAL        0100   58 65  360/ 16/ 18 1021.2
SHELL BEACH      0100   58 64  360/ 17/ 20 1020.4

OFFSHORE STATIONS

STATION/POSITION TIME  TEMP    WIND        PRES    WAVE
                       AIR SEA DIR/SP/G            HT/PER
                 (UTC) (F)     (DEG/KT/KT) (MB)    (FT/S)
64 S DAUPHIN ISL 0102   59 68  360/ 23/ 29 1019.0

$$




USA.gov is the U.S. government's official web portal to all federal, state and local government web resources and services.